Location: Waldport
(44.4270°N, 124.0680°W)
Time: 03:01:46
(UTC-07:00)

CZ-2C R/B - Pass Details

Date: 23 June 2018
Orbit: 703 x 909 km, 98.2° (Epoch: 20 July)

Event Time Altitude Azimuth Distance (km) Brightness Sun altitude
Exits shadow 23:41:41 27° 187° (S) 1,682 4.3 -18.6°
Maximum altitude 23:44:55 62° 259° (W) 1,016 3.6 -18.9°
Drops below altitude 10° 23:50:37 10° 340° (NNW) 2,560 7.0 -19.2°
Sets 23:53:02 0° 344° (NNW) 3,482 8.0 -19.4°
